When you browse on this site, cookies collect data to enhance your experience and personalize the content and advertising you see.
Visit our Privacy Policy to learn more. By continuing to use the site, you agree to this use of cookies and data.
  • In Belgium
  • List of Countries
  • For 7 days
  • Water Temperature
  • Satellite Maps
  • Weather Map
  • Weather Widgets
  • user-avatar
    Login

    Hourly Weather Sambor

    Today, 19 February, Tuesday

    Time Temperature Precipitation Wind Pressure Humidity
    00:00 +3°C° 0 mm 2 mps 740 mmHg 87%
    01:00 +3°C° 0 mm 2 mps 740 mmHg 86%
    02:00 +2°C° 0 mm 2 mps 739 mmHg 85%
    03:00 +2°C° 0 mm 2 mps 739 mmHg 85%
    04:00 +2°C° 0 mm 2 mps 739 mmHg 84%
    05:00 +2°C° 0 mm 2 mps 739 mmHg 84%
    06:00 +2°C° 0 mm 2 mps 739 mmHg 83%
    07:00 +2°C° 0 mm 2 mps 738 mmHg 83%
    08:00 +2°C° 0 mm 2 mps 738 mmHg 82%
    09:00 +4°C° 0 mm 2 mps 738 mmHg 75%
    10:00 +6°C° 0 mm 2 mps 738 mmHg 67%
    11:00 +8°C° 0 mm 2 mps 738 mmHg 60%
    12:00 +9°C° 0 mm 3 mps 738 mmHg 57%
    13:00 +10°C° 0 mm 4 mps 737 mmHg 54%
    14:00 +11°C° 0 mm 4 mps 737 mmHg 52%
    15:00 +10°C° 0 mm 4 mps 737 mmHg 55%
    16:00 +8°C° 0 mm 4 mps 736 mmHg 58%
    17:00 +8°C° 0 mm 3 mps 736 mmHg 61%
    18:00 +6°C° 0 mm 4 mps 736 mmHg 64%
    19:00 +5°C° 0 mm 4 mps 736 mmHg 68%
    20:00 +4°C° 0 mm 4 mps 736 mmHg 71%
    21:00 +4°C° 0 mm 4 mps 736 mmHg 72%
    22:00 +4°C° 0 mm 4 mps 736 mmHg 72%
    23:00 +3°C° 0 mm 5 mps 736 mmHg 73%

    Tomorrow, 20 February, Wednesday

    Time Temperature Precipitation Wind Pressure Humidity
    00:00 +4°C° 0 mm 4 mps 736 mmHg 76%
    01:00 +3°C° 0 mm 4 mps 736 mmHg 78%
    02:00 +3°C° 0 mm 4 mps 736 mmHg 81%
    03:00 +3°C° 0 mm 4 mps 736 mmHg 81%
    04:00 +3°C° 0 mm 3 mps 736 mmHg 82%
    05:00 +3°C° 0 mm 3 mps 736 mmHg 82%
    06:00 +3°C° 0.2 mm 4 mps 736 mmHg 84%
    07:00 +3°C° 0.2 mm 4 mps 736 mmHg 86%
    08:00 +3°C° 0.2 mm 4 mps 736 mmHg 88%
    09:00 +3°C° 0 mm 5 mps 737 mmHg 83%
    10:00 +5°C° 0 mm 5 mps 737 mmHg 79%
    11:00 +4°C° 0 mm 6 mps 737 mmHg 74%
    12:00 +4°C° 0.1 mm 6 mps 737 mmHg 74%
    13:00 +4°C° 0.1 mm 6 mps 737 mmHg 74%
    14:00 +3°C° 0.1 mm 6 mps 737 mmHg 74%
    15:00 +3°C° 0.1 mm 6 mps 737 mmHg 73%
    16:00 +3°C° 0.1 mm 6 mps 738 mmHg 71%
    17:00 +3°C° 0.1 mm 5 mps 738 mmHg 70%
    18:00 +3°C° 0.1 mm 5 mps 738 mmHg 73%
    19:00 +2°C° 0.1 mm 5 mps 739 mmHg 76%
    20:00 +2°C° 0.1 mm 5 mps 739 mmHg 79%
    21:00 +3°C° 0.1 mm 4 mps 739 mmHg 80%
    22:00 +1°C° 0.1 mm 4 mps 739 mmHg 81%
    23:00 +1°C° 0.1 mm 4 mps 740 mmHg 82%

    Day after tomorrow, 21 February, Thursday

    Time Temperature Precipitation Wind Pressure Humidity
    00:00 +1°C° 0 mm 4 mps 740 mmHg 82%
    01:00 +1°C° 0 mm 4 mps 740 mmHg 82%
    02:00 +1°C° 0 mm 4 mps 740 mmHg 82%
    03:00 +1°C° 0 mm 4 mps 740 mmHg 83%
    04:00 +1°C° 0 mm 4 mps 740 mmHg 84%
    05:00 +1°C° 0 mm 4 mps 740 mmHg 85%
    06:00 +3°C° 0 mm 4 mps 740 mmHg 84%
    07:00 +3°C° 0 mm 4 mps 740 mmHg 84%
    08:00 +3°C° 0 mm 4 mps 740 mmHg 84%
    09:00 +3°C° 0.1 mm 5 mps 740 mmHg 79%
    10:00 +5°C° 0.1 mm 5 mps 740 mmHg 73%
    11:00 +5°C° 0.1 mm 6 mps 740 mmHg 68%
    12:00 +5°C° 0 mm 6 mps 740 mmHg 68%
    13:00 +5°C° 0 mm 6 mps 739 mmHg 67%
    14:00 +5°C° 0 mm 6 mps 739 mmHg 67%
    15:00 +5°C° 0.1 mm 6 mps 739 mmHg 69%
    16:00 +5°C° 0.1 mm 5 mps 738 mmHg 72%
    17:00 +5°C° 0.1 mm 5 mps 738 mmHg 74%
    18:00 +5°C° 0.2 mm 5 mps 738 mmHg 76%
    19:00 +3°C° 0.2 mm 5 mps 738 mmHg 79%
    20:00 +3°C° 0.2 mm 6 mps 738 mmHg 81%
    21:00 +3°C° 0.2 mm 6 mps 738 mmHg 83%
    22:00 +3°C° 0.2 mm 6 mps 738 mmHg 85%
    23:00 +3°C° 0.2 mm 6 mps 738 mmHg 87%

    22 February, Friday

    Time Temperature Precipitation Wind Pressure Humidity
    00:00 +3°C° 0.4 mm 6 mps 738 mmHg 89%
    01:00 +3°C° 0.4 mm 6 mps 738 mmHg 90%
    02:00 +3°C° 0.4 mm 5 mps 738 mmHg 91%
    03:00 +3°C° 0.8 mm 5 mps 738 mmHg 92%
    04:00 +3°C° 0.8 mm 5 mps 738 mmHg 93%
    05:00 +3°C° 0.8 mm 5 mps 739 mmHg 93%
    06:00 +1°C° 0.6 mm 5 mps 739 mmHg 91%
    07:00 -2°C° 0.6 mm 6 mps 740 mmHg 89%
    08:00 -3°C° 0.6 mm 6 mps 741 mmHg 88%
    09:00 -4°C° 0.1 mm 6 mps 742 mmHg 82%
    10:00 -4°C° 0.1 mm 6 mps 743 mmHg 77%
    11:00 -4°C° 0.1 mm 6 mps 745 mmHg 72%
    12:00 -4°C° 0 mm 6 mps 745 mmHg 69%
    13:00 -4°C° 0 mm 6 mps 746 mmHg 66%
    14:00 -4°C° 0 mm 6 mps 746 mmHg 64%
    15:00 -4°C° 0 mm 6 mps 747 mmHg 63%
    16:00 -5°C° 0 mm 6 mps 748 mmHg 63%
    17:00 -5°C° 0 mm 6 mps 748 mmHg 62%
    18:00 -6°C° 0 mm 5 mps 749 mmHg 63%
    19:00 -6°C° 0 mm 5 mps 750 mmHg 64%
    20:00 -7°C° 0 mm 4 mps 751 mmHg 65%
    21:00 -7°C° 0 mm 4 mps 751 mmHg 62%
    22:00 -7°C° 0 mm 4 mps 752 mmHg 60%
    23:00 -7°C° 0 mm 4 mps 752 mmHg 57%

    23 February, Saturday

    Time Temperature Precipitation Wind Pressure Humidity
    00:00 -6°C° 0 mm 3 mps 753 mmHg 56%
    01:00 -6°C° 0 mm 3 mps 753 mmHg 55%
    02:00 -6°C° 0 mm 3 mps 753 mmHg 53%
    03:00 -6°C° 0 mm 3 mps 753 mmHg 54%
    04:00 -5°C° 0 mm 2 mps 753 mmHg 54%
    05:00 -5°C° 0 mm 2 mps 753 mmHg 54%
    06:00 -5°C° 0 mm 2 mps 753 mmHg 54%
    07:00 -5°C° 0 mm 2 mps 753 mmHg 54%
    08:00 -5°C° 0 mm 2 mps 753 mmHg 54%
    09:00 -4°C° 0 mm 2 mps 753 mmHg 48%
    10:00 -3°C° 0 mm 2 mps 753 mmHg 41%
    11:00 -2°C° 0 mm 2 mps 753 mmHg 35%
    12:00 -2°C° 0 mm 2 mps 752 mmHg 35%
    13:00 -1°C° 0 mm 2 mps 752 mmHg 34%
    14:00 -1°C° 0 mm 2 mps 751 mmHg 33%
    15:00 -1°C° 0 mm 3 mps 751 mmHg 37%
    16:00 -1°C° 0 mm 3 mps 750 mmHg 42%
    17:00 -2°C° 0 mm 3 mps 750 mmHg 46%
    18:00 -2°C° 0 mm 2 mps 749 mmHg 52%
    19:00 -2°C° 0 mm 2 mps 749 mmHg 58%
    20:00 -3°C° 0 mm 2 mps 749 mmHg 64%
    21:00 -3°C° 0 mm 2 mps 749 mmHg 62%
    22:00 -2°C° 0 mm 2 mps 749 mmHg 60%
    23:00 -2°C° 0 mm 2 mps 749 mmHg 58%

    24 February, Sunday

    Time Temperature Precipitation Wind Pressure Humidity
    00:00 -2°C° 0 mm 2 mps 748 mmHg 58%
    01:00 -2°C° 0 mm 2 mps 748 mmHg 58%
    02:00 -2°C° 0 mm 2 mps 748 mmHg 58%
    03:00 -2°C° 0 mm 2 mps 748 mmHg 62%
    04:00 -3°C° 0 mm 2 mps 748 mmHg 65%
    05:00 -3°C° 0 mm 2 mps 748 mmHg 69%
    06:00 -3°C° 0 mm 2 mps 748 mmHg 71%
    07:00 -3°C° 0 mm 2 mps 748 mmHg 73%
    08:00 -3°C° 0 mm 2 mps 748 mmHg 76%
    09:00 -1°C° 0 mm 2 mps 748 mmHg 75%
    10:00 +1°C° 0 mm 2 mps 748 mmHg 74%
    11:00 +2°C° 0 mm 2 mps 748 mmHg 73%
    12:00 +2°C° 0 mm 3 mps 747 mmHg 76%
    13:00 +2°C° 0 mm 3 mps 747 mmHg 79%
    14:00 +2°C° 0 mm 3 mps 747 mmHg 82%
    15:00 +2°C° 0 mm 3 mps 746 mmHg 85%
    16:00 +3°C° 0 mm 2 mps 746 mmHg 88%
    17:00 +3°C° 0 mm 2 mps 745 mmHg 91%
    18:00 +2°C° 0 mm 2 mps 745 mmHg 92%
    19:00 +2°C° 0 mm 2 mps 744 mmHg 93%
    20:00 +1°C° 0 mm 3 mps 744 mmHg 94%
    21:00 +1°C° 0 mm 3 mps 744 mmHg 94%
    22:00 +1°C° 0 mm 3 mps 743 mmHg 94%
    23:00 0°C° 0 mm 3 mps 742 mmHg 94%
    Show more